This demonstration page uses our WeatherBlox Daily Observations layout. Learn more.

Left ArrowRight Arrow

Hourly Observations for June 7, 2021

Temp ( °F °C ) Dew Point ( °F °C ) Humidity (%) Winds ( mph kmh ) Pressure ( in mb ) Visibility ( mi km ) Precip ( " mm )
12:15 am 00:15 Mostly Cloudy 79 26 70 21 74 74 N N/A 30.07 1018 10 16 N/A
12:35 am 00:35 Partly Cloudy 79 26 70 21 74 74 N N/A 30.08 1019 10 16 N/A
12:55 am 00:55 Clear 79 26 70 21 74 74 N N/A 30.08 1019 10 16 N/A
1:15 am 01:15 Clear 79 26 70 21 74 74 N N/A 30.07 1018 10 16 N/A
1:35 am 01:35 Clear 79 26 70 21 74 74 S 5 7 30.07 1018 10 16 N/A
1:55 am 01:55 Clear 77 25 70 21 79 79 S 3 6 30.06 1018 10 16 N/A
2:15 am 02:15 Clear 72 22 68 20 88 88 N N/A 30.07 1018 10 16 N/A
2:35 am 02:35 Clear 72 22 68 20 88 88 N N/A 30.07 1018 10 16 N/A
2:55 am 02:55 Clear 72 22 68 20 88 88 N N/A 30.07 1018 10 16 N/A
3:15 am 03:15 Clear 73 23 68 20 83 83 N N/A 30.07 1018 10 16 N/A
3:35 am 03:35 Clear 72 22 68 20 88 88 N N/A 30.07 1018 10 16 N/A
3:55 am 03:55 Partly Cloudy 70 21 68 20 94 94 SW 3 6 30.07 1018 10 16 N/A
4:15 am 04:15 Partly Cloudy 72 22 68 20 88 88 N N/A 30.08 1019 10 16 N/A
4:35 am 04:35 Partly Cloudy 72 22 68 20 88 88 N N/A 30.08 1019 10 16 N/A
4:55 am 04:55 Clear 70 21 68 20 94 94 N N/A 30.08 1019 10 16 N/A
5:15 am 05:15 Clear 70 21 68 20 94 94 N N/A 30.08 1019 10 16 N/A
5:35 am 05:35 Clear 70 21 68 20 94 94 N N/A 30.08 1019 10 16 N/A
5:55 am 05:55 Sunny 70 21 66 19 88 88 N N/A 30.08 1019 10 16 N/A
6:15 am 06:15 Sunny 70 21 66 19 88 88 N N/A 30.09 1019 10 16 N/A
6:35 am 06:35 Sunny 70 21 66 19 88 88 N N/A 30.10 1019 10 16 N/A
6:55 am 06:55 Sunny 72 22 68 20 88 88 S 5 7 30.10 1019 10 16 N/A
7:15 am 07:15 Sunny 72 22 68 20 88 88 SSW 5 7 30.11 1020 10 16 N/A
7:35 am 07:35 Sunny 72 22 68 20 88 88 S 8 13 30.11 1020 10 16 N/A
7:55 am 07:55 Sunny 72 22 68 20 88 88 SSW 5 7 30.11 1020 10 16 N/A
8:15 am 08:15 Sunny 73 23 68 20 83 83 SSW 3 6 30.11 1020 10 16 N/A
8:35 am 08:35 Sunny 77 25 70 21 79 79 N N/A 30.10 1019 10 16 N/A
8:55 am 08:55 Sunny 79 26 70 21 74 74 S 3 6 30.11 1020 10 16 N/A
9:15 am 09:15 Sunny 79 26 70 21 74 74 SSW 3 6 30.11 1020 10 16 N/A
9:35 am 09:35 Sunny 79 26 70 21 74 74 WSW 5 7 30.11 1020 10 16 N/A
9:55 am 09:55 Sunny 81 27 70 21 70 70 SSE 6 9 30.11 1020 10 16 N/A
10:15 am 10:15 Sunny 82 28 70 21 66 66 SSW 5 7 30.10 1019 10 16 N/A
10:55 am 10:55 Sunny 86 30 70 21 59 59 S 10 17 30.10 1019 10 16 N/A
11:15 am 11:15 Sunny 86 30 70 21 59 59 SSW 8 13 30.10 1019 10 16 N/A
11:35 am 11:35 Sunny 88 31 70 21 55 55 SSW 7 11 30.10 1019 10 16 N/A
11:55 am 11:55 Sunny 88 31 70 21 55 55 SSW 10 17 30.10 1019 10 16 N/A
12:15 pm 12:15 Sunny 88 31 70 21 55 55 WSW 9 15 30.10 1019 10 16 N/A
12:35 pm 12:35 Sunny 88 31 68 20 52 52 SW 9 15 30.10 1019 10 16 N/A
12:55 pm 12:55 Sunny 86 30 70 21 59 59 SW 8 13 30.10 1019 10 16 N/A
1:15 pm 13:15 Sunny 86 30 70 21 59 59 SSW 9 15 30.09 1019 10 16 N/A
1:35 pm 13:35 Sunny 88 31 70 21 55 55 S 10 17 30.09 1019 10 16 N/A
1:55 pm 13:55 Sunny 88 31 70 21 55 55 SW 9 15 30.08 1019 10 16 N/A
2:15 pm 14:15 Sunny 90 32 72 22 55 55 SW 9 15 30.08 1018 10 16 N/A
2:35 pm 14:35 Partly Cloudy 90 32 72 22 55 55 SSW 5 7 30.07 1018 10 16 N/A
2:55 pm 14:55 Mostly Cloudy 90 32 72 22 55 55 SW 10 17 30.06 1018 10 16 N/A
3:15 pm 15:15 Partly Cloudy 90 32 72 22 55 55 S 7 11 30.05 1017 10 16 N/A
3:35 pm 15:35 Partly Cloudy 90 32 72 22 55 55 SW 7 11 30.05 1017 10 16 N/A
3:55 pm 15:55 Partly Cloudy 90 32 70 21 52 52 SSW 7 11 30.04 1017 10 16 N/A
4:15 pm 16:15 Sunny 91 33 70 21 49 49 SSE 9 15 30.02 1017 10 16 N/A
4:35 pm 16:35 Sunny 90 32 72 22 55 55 SSW 9 15 30.03 1017 10 16 N/A
4:55 pm 16:55 Sunny 90 32 70 21 52 52 SW 8 13 30.02 1016 10 16 N/A
5:15 pm 17:15 Sunny 90 32 70 21 52 52 SSW 10 17 30.02 1016 10 16 N/A
5:35 pm 17:35 Sunny 90 32 70 21 52 52 SW 9 15 30.03 1017 10 16 N/A
5:55 pm 17:55 Sunny 88 31 72 22 59 59 SW 8 13 30.02 1016 10 16 N/A
6:15 pm 18:15 Sunny 88 31 72 22 59 59 WSW 3 6 30.02 1016 10 16 N/A
6:35 pm 18:35 Sunny 88 31 72 22 59 59 SSW 9 15 30.02 1016 10 16 N/A
6:55 pm 18:55 Sunny 86 30 72 22 62 62 SW 9 15 30.02 1017 10 16 N/A
7:15 pm 19:15 Sunny with Nearby Thunderstorms 84 29 72 22 66 66 SSW 7 11 30.02 1017 10 16 N/A
7:35 pm 19:35 Sunny 84 29 72 22 66 66 SW 6 9 30.03 1017 10 16 N/A
7:55 pm 19:55 Sunny 82 28 72 22 70 70 SSW 5 7 30.03 1017 10 16 N/A
8:15 pm 20:15 Sunny 82 28 72 22 70 70 SSW 6 9 30.03 1017 10 16 N/A
8:35 pm 20:35 Clear 81 27 72 22 74 74 SSW 6 9 30.04 1017 10 16 N/A
8:55 pm 20:55 Clear 81 27 72 22 74 74 S 6 9 30.04 1017 10 16 N/A
9:15 pm 21:15 Clear 81 27 72 22 74 74 SSW 5 7 30.05 1018 10 16 N/A
9:35 pm 21:35 Clear 81 27 72 22 74 74 SSW 5 7 30.05 1018 10 16 N/A
9:55 pm 21:55 Clear 81 27 72 22 74 74 S 7 11 30.06 1018 10 16 N/A
10:15 pm 22:15 Clear 79 26 72 22 79 79 SSW 5 7 30.06 1018 10 16 N/A
10:35 pm 22:35 Clear 79 26 72 22 79 79 SSW 6 9 30.06 1018 10 16 N/A
10:55 pm 22:55 Clear 79 26 72 22 79 79 S 5 7 30.06 1018 10 16 N/A
11:15 pm 23:15 Clear 79 26 72 22 79 79 SSW 6 9 30.06 1018 10 16 N/A
11:35 pm 23:35 Clear 79 26 72 22 79 79 S 6 9 30.06 1018 10 16 N/A
11:55 pm 23:55 Clear 77 25 72 22 83 83 SSW 5 7 30.06 1018 10 16 N/A

Powered by AerisWeather